STARLINK-38154, 100258

Orbit data source: Space-Track

STARLINK-38154, 100258 is a payload satellite owned by SpaceX/Seattle (US) in SSO that was launched on Sat, 08 Aug 2026 UTC launched from the Air Force Western Test Range (AFWTR). Payload-class satellites include a variety of spacecraft equipped with specific instruments for various scientific and technological missions. These include communications satellites like Starlink; space stations such as the ISS; scientific satellites like the Hubble; Earth observation satellites from companies like Planet Labs, Umbra, and HawkEye 360; GPS; miniature CubeSats for education and research; and military/defense satellites.

Loading next visibility...
Identifier
100258, 2026-181N
Orbit
SSO
Country
Flag of USUS
Related business
Manufacturer
SpaceX/Seattle
Mission
Operational spacecraft
Bus & Motor
STARLINK V2MO, Unknown motor
Mass
575 kg wet, ~530 kg dry
Launch date (UTC)
2026-08-08 (1 month ago)
Launch vehicle
Unknown
Launch site
Air Force Western Test Range (AFWTR)
Object type
Payload
Rocket body
Debris
Shape & HBR
BOX + PAN, 17.7 m
Radar Cross Section
RCS unknown

Expand to show TLE details & history
Last TLE update: 7 hours ago

TLE from 7 hours ago
0 STARLINK-38154
1 A0258U 26181N   26249.59955636  .00150435  00000-0  98939-3 0  9993
2 A0258  97.2847 292.5319 0000494  90.6089 269.5233 15.75246044  5771
Epoch: 2026-09-06T14:23Z
TLE epoch observation values (Epoch: 2026-09-06T14:23:21.669Z)
Latitude
-0.00001°
Longitude
90.99926°
Altitude
347.102 km
Speed
7.701 km/s
True Right ascension
19h 30m 07s
True Declination
0° 00' 00"
Sunlit
Object was in full shadow at epoch
Visualization orbit readout
Latitude
Unknown
Longitude
Unknown
Altitude
Unknown
Speed
Unknown
Apparent Right ascension
Unknown
Apparent Declination
Unknown
Sunlit
N/A
Visualization observer readout
Local Sidereal Time
13:03:19
Azimuth
Unknown
Elevation
Unknown
Doppler factor
Unknown
Orbital elements
Apogee altitude
341.15 km
Perigee altitude
340.487 km
Semi-major axis
6,718.955 km
Eccentricity
0.00005
Inclination
97.2847°
RAAN
292.5319°
Arg. of periapsis
90.6089°
True anomaly
269.51764°
Mean anomaly
269.5233°
Eccentric anomaly
269.52047°
Mean motion
3.94086 °/min
Orbital period
91.35 mins
BSTAR
0.00098939
Loading maneuver chart data...
Computing Atmospheric mass density...
Loading historical data...
Loading historical data...
Loading historical data...
Loading historical data...
Loading historical data...
Loading historical data...
Loading historical data...

Documentation

Showing up to 5 results
|